Regional Weather Roundup
Issued by NWS

Home | Current Version | Previous Version | Graphics & Text | Print | Product List | Glossary On
Versions: 1 2 3 4 5 6 7 8 9 10 11 12 13 14 15 16 17 18 19 20 21 22 23 24 25 26 27 28 29 30 31 32 33 34 35 36 37 38 39 40 41 42 43 44 45 46 47 48 49 50
139
ASUS43 KLOT 231704
RWRIL

ILLINOIS REGIONAL WEATHER ROUNDUP
NATIONAL WEATHER SERVICE CHICAGO/ROMEOVILLE IL
1200 PM CDT FRI JUN 23 2017

NOTE: "FAIR" INDICATES FEW OR NO CLOUDS BELOW 12,000 FEET WITH NO
SIGNIFICANT WEATHER AND/OR OBSTRUCTIONS TO VISIBILITY.

* THESE STATIONS ARE NOT UNDER NWS QUALITY CONTROL. THEY ALSO MAY NOT
  REPORT WEATHER SUCH AS PRECIPITATION OR FOG.

ILZ001-002-007-009-015-016-024-231800-
NORTHWEST ILLINOIS

CITY           SKY/WX    TMP DP  RH WIND       PRES   REMARKS
MOLINE         SUNNY     79  59  50 N9        29.77R HX  80
$$

ILZ003-004-008-010-011-017-018-231800-
NORTH CENTRAL ILLINOIS

CITY           SKY/WX    TMP DP  RH WIND       PRES   REMARKS
ROCKFORD       NOT AVBL
$$

ILZ005-006-012>014-019>023-231800-
NORTHEAST ILLINOIS

CITY           SKY/WX    TMP DP  RH WIND       PRES   REMARKS
CHICAGO-OHARE  CLOUDY    77  59  53 NW13G20   29.70R
CHICAGO-MIDWAY PTSUNNY   77  57  50 N14       29.70R
AURORA         PTSUNNY   75  63  66 NW14      29.73R
WAUKEGAN       NOT AVBL
DUPAGE AIRPORT CLOUDY    74  61  63 N12       29.71S
WHEELING       CLOUDY    75  61  61 NW12      29.71S
NORTHERLY ISL    N/A     70  62  76 CALM        N/A
$$

LMZ740>746-231800-
SOUTHERN LAKE MICHIGAN

STATION/POSITION SKY/WX   TEMP    WIND        PRES    VSBY  WAVE
                          AIR SEA DIR/SP/G                  HT/PER
                          (F)     (DEG/KT/KT) (MB)    (MI)  (FT/S)
SOUTHERN BUOY              63 61  310/ 10/ 12 1004.9          1
WILMETTE HARBOR            67 65  320/  4/  4   N/A           1/ 3
HARRISON CRIB              67      10/  6/  7   N/A
BURNHAM HARBOR             69                   N/A
CALUMET HARBOR             69     340/  6/  8 1005.4S
BURNS HARBOR               66     330/ 12/ 14 1006.4R
MICHIGAN CITY              66     330/ 16/ 17   N/A
MICHIGAN CITY 6N           66 68  330/ 12/ 16   N/A           2/ 3
ST. JOSEPH                 65 68  340/ 12/ 16 1005.2R         2/ 3
$$

ILZ025>027-034>036-040-047-049-050-058-095>099-231800-
WEST-CENTRAL ILLINOIS

CITY           SKY/WX    TMP DP  RH WIND       PRES   REMARKS
QUINCY         MOSUNNY   80  59  48 N14       29.79R HX  81
$$

ILZ028>032-037-038-041>044-048-051>054-059>061-231800-
CENTRAL ILLINOIS

CITY           SKY/WX    TMP DP  RH WIND       PRES   REMARKS
DECATUR        CLOUDY    79  72  78 N7        29.72R HX  82
PEORIA         NOT AVBL
SPRINGFIELD    PTSUNNY   80  70  71 N15G25    29.74R HX  83
TAYLORVILLE    NOT AVBL
$$

ILZ033-039-045-046-055>057-062-063-231800-
EAST-CENTRAL ILLINOIS

CITY           SKY/WX    TMP DP  RH WIND       PRES   REMARKS
CHAMPAIGN      CLOUDY    76  68  76 W6        29.73R
MATTOON        CLOUDY    78  73  84 NE9       29.70R HX  81
$$

ILZ079-100>102-231800-
SOUTHWEST ILLINOIS

CITY           SKY/WX    TMP DP  RH WIND       PRES   REMARKS
ALTON          PTSUNNY   79  72  78 NW15      29.71F HX  82
BELLEVILLE     PTSUNNY   82  73  74 N8        29.70F HX  88
CAHOKIA*       CLOUDY    85  70  60 NW14      29.70F HX  89
$$

ILZ064>066-069>071-074>076-080>082-084>086-088>090-092>094-231800-
SOUTH-CENTRAL ILLINOIS

CITY           SKY/WX    TMP DP  RH WIND       PRES   REMARKS
CARBONDALE     CLOUDY    77  76  96 S9        29.67F
MARION         LGT RAIN  77  77 100 S5        29.69F
MT. VERNON     CLOUDY    75  73  94 S5        29.69F
$$

ILZ067-068-072-073-078-083-087-091-231800-
SOUTHEAST ILLINOIS

CITY           SKY/WX    TMP DP  RH WIND       PRES   REMARKS
LAWRENCEVILLE  LGT RAIN  75  74  96 S9        29.72R
$$

ABBREVIATIONS USED IN REMARKS
   TC - TEMPERATURE IN CELSIUS
  WCI - WIND CHILL INDEX
   HX - HEAT INDEX
  VSB - VISIBILITY
$$





USA.gov is the U.S. government's official web portal to all federal, state and local government web resources and services.